Flag for Guyana Weather past 2 weeks in Linden, Guyana

Now
91 °F

Partly sunny.


Feels Like: 99 °F
Forecast: 74 / 90 °F
Wind: No wind

Location: Georgetown/Cheddi Jagan International Airport

Current Time: Oct 2, 2014 at 1:21:07 PM

Latest Report: Oct 2, 2014 at 1:00 PM


Visibility: N/A

Pressure: 29.83 "Hg

Humidity: 52%

Dew point: 72 °F

Location of LindenLocation

Historic Weather in Linden — Graph

°F

Linden temperature yesterday

Maximum temperature yesterday: 91 °F (at 1:00 PM)
Minimum temperature yesterday: 72 °F (at 3:00 AM)
Average temperature yesterday: 81 °F

Past Weeks' High & Low Weather Summary

 TemperatureHumidityPressure
High93 °F (Sep 17, 1:00 PM)100% (Sep 17, 3:00 PM)29.98 "Hg (Sep 17, 3:00 PM)
Low72 °F (Sep 19, 5:00 AM)47% (Sep 25, 1:00 PM)29.77 "Hg (Sep 18, 4:00 PM)
Average81 °F82%29.89 "Hg
* Reported Sep 17 12:00 Noon — Oct 2 12:00 Noon, Linden, Weather by CustomWeather, © 2014

Note: Actual official high and low records may vary slightly from our data, if they occured in-between our weather recording intervals... More about our weather records

Advertising

Linden weather history for previous 24 hours

 ConditionsComfort  
Time TempWeatherWind HumidityBarometerVisibility
12:00 PM
Oct 2
88 °FPartly sunny.2 mph62%29.89 "HgN/A
11:00 AM90 °FPartly sunny.No wind63%29.92 "HgN/A
10:00 AM86 °FScattered clouds.No wind70%29.92 "HgN/A
9:00 AM86 °FPartly sunny.2 mph70%29.95 "HgN/A
8:00 AM81 °FBroken clouds.2 mph89%29.95 "HgN/A
7:00 AM75 °FScattered clouds.5 mph94%29.95 "HgN/A
6:00 AM73 °FFog.5 mph94%29.92 "Hg1 mi
5:00 AM73 °FPassing clouds.No wind94%29.89 "Hg6 mi
4:00 AM73 °FPassing clouds.No wind94%29.89 "Hg5 mi
3:00 AM73 °FPassing clouds.No wind94%29.89 "Hg5 mi
2:00 AM75 °FPassing clouds.No wind94%29.89 "Hg6 mi
1:00 AM75 °FPassing clouds.No wind94%29.92 "Hg6 mi
12:00 AM77 °FPassing clouds.5 mph89%29.92 "HgN/A
11:00 PM
Oct 1
79 °FClear.No wind84%29.92 "Hg10 mi
10:00 PM79 °FClear.2 mph84%29.92 "Hg10 mi
9:00 PM79 °FClear.5 mph84%29.92 "Hg10 mi
8:00 PM81 °FPassing clouds.5 mph79%29.92 "HgN/A
7:00 PM82 °FPassing clouds.7 mph74%29.89 "HgN/A
6:00 PM82 °FPassing clouds.14 mph79%29.89 "HgN/A
5:00 PM86 °FPartly sunny.12 mph66%29.86 "HgN/A
4:00 PM90 °FScattered clouds.12 mph59%29.86 "HgN/A
3:00 PM90 °FScattered clouds.12 mph59%29.86 "HgN/A
2:00 PM90 °FPartly sunny.12 mph55%29.86 "HgN/A
1:00 PM91 °FPartly sunny.12 mph56%29.89 "HgN/A
Weather by CustomWeather, © 2014

See weather overviewHow to use our weather pages